Weather History for Paducah, KY

Change the Weather History Date:

Sunday, March 25, 2012

  Actual Average Record
Temperature  
Mean Temperature 60 °F 51 °F  
Max Temperature 69 °F 62 °F 83 °F (2007)
Min Temperature 50 °F 40 °F 18 °F (1955)
Degree Days  
Heating Degree Days 5 14  
Month to date heating degree days 185 444  
Since 1 July heating degree days 2988 3740  
Cooling Degree Days 0 0  
Month to date cooling degree days 44 0  
Year to date cooling degree days 44 0  
Growing Degree Days 10 (Base 50)    
Moisture  
Dew Point 53 °F    
Average Humidity 81    
Maximum Humidity 100    
Minimum Humidity 61    
Precipitation  
Precipitation T in 0.14 in 2.98 in (2002)
Month to date precipitation 4.00 3.08  
Year to date precipitation 9.74 10.67  
Snow  
Snow 0.00 in 0.00 in 1.00 in (1979)
Month to date snowfall T 0.6  
Since 1 July snowfall 0.7 9.1  
Snow Depth 0.00 in    
Sea Level Pressure  
Sea Level Pressure 29.99 in    
Wind  
Wind Speed 6 mph (NW)    
Max Wind Speed 17 mph    
Max Gust Speed 21 mph    
Visibility 8 miles    
Events Rain    
T = Trace of Precipitation, MM = Missing Value Source: NWS Daily Summary

Daily Weather History Graph

Daily Weather History Graph

Search for Another Location

Airport:

Trip Planner

Search our weather history database for the weather conditions in past years. The results will help you decide how hot, cold, wet, or windy it might be!

Date:

Astronomy

Mar. 25, 2012 Rise Set
Actual Time 6:50 AM CDT 7:11 PM CDT
Civil Twilight 6:24 AM CDT 7:37 PM CDT
Nautical Twilight 5:53 AM CDT 8:08 PM CDT
Astronomical Twilight 5:22 AM CDT 8:39 PM CDT
Moon 8:07 AM CDT (3/25) 10:21 PM CDT (3/25)
Length of Visible Light 13h 13m
Length of Day
12h 21m
Waxing Crescent, 9% of the Moon is Illuminated
Mar 25
Waxing Crescent
Mar 30
First Quarter
Apr 6
Full
Apr 13
Last Quarter
Apr 21
New

Hourly Weather History & Observations

Time (CDT) Temp. Dew Point Humidity Pressure Visibility Wind Dir Wind Speed Gust Speed Precip Events Conditions
12:53 AM 57.0 °F 51.1 °F 81% 29.91 in 8.0 mi Calm Calm - 0.00 in Rain Light Rain
1:53 AM 55.9 °F 53.1 °F 90% 29.91 in 10.0 mi Calm Calm - 0.01 in   Mostly Cloudy
2:53 AM 55.9 °F 53.1 °F 90% 29.92 in 10.0 mi South 3.5 mph - N/A   Mostly Cloudy
3:53 AM 52.0 °F 51.1 °F 97% 29.91 in 6.0 mi Calm Calm - N/A   Clear
4:53 AM 50.0 °F 48.9 °F 96% 29.92 in 5.0 mi WSW 3.5 mph - N/A   Clear
5:53 AM 52.0 °F 51.1 °F 97% 29.94 in 7.0 mi West 4.6 mph - N/A   Clear
6:53 AM 52.0 °F 51.1 °F 97% 29.95 in 4.0 mi West 3.5 mph - N/A   Clear
7:53 AM 57.0 °F 54.0 °F 89% 29.97 in 5.0 mi NW 3.5 mph - N/A   Clear
8:53 AM 61.0 °F 55.0 °F 81% 29.99 in 10.0 mi NNW 9.2 mph - N/A   Clear
9:53 AM 64.9 °F 55.0 °F 70% 30.01 in 10.0 mi North 12.7 mph - N/A   Clear
10:53 AM 64.0 °F 54.0 °F 70% 30.01 in 10.0 mi NNE 16.1 mph - N/A   Overcast
11:53 AM 64.9 °F 55.0 °F 70% 30.01 in 10.0 mi NNW 9.2 mph - N/A   Overcast
12:53 PM 68.0 °F 55.0 °F 63% 30.01 in 10.0 mi NNW 9.2 mph - N/A   Mostly Cloudy
1:53 PM 66.9 °F 54.0 °F 63% 30.01 in 10.0 mi NNW 9.2 mph - N/A   Overcast
2:53 PM 66.9 °F 55.9 °F 68% 30.00 in 10.0 mi North 6.9 mph - N/A   Overcast
3:53 PM 66.9 °F 55.0 °F 66% 30.00 in 10.0 mi North 8.1 mph - N/A   Overcast
4:53 PM 69.1 °F 55.0 °F 61% 30.00 in 10.0 mi North 6.9 mph - N/A   Scattered Clouds
5:53 PM 66.9 °F 54.0 °F 63% 30.01 in 10.0 mi WNW 6.9 mph - N/A   Mostly Cloudy
6:53 PM 64.9 °F 54.0 °F 68% 30.01 in 10.0 mi North 6.9 mph - N/A   Partly Cloudy
7:53 PM - - N/A% 30.03 in - North - - N/A   Unknown
8:53 PM 62.1 °F 54.0 °F 75% 30.04 in 10.0 mi Calm Calm - N/A   Unknown
9:53 PM 54.0 °F 53.1 °F 97% 30.05 in 8.0 mi Calm Calm - N/A   Clear
10:53 PM 52.0 °F 51.1 °F 97% 30.05 in 6.0 mi WSW 3.5 mph - N/A   Clear
11:53 PM 52.0 °F 51.1 °F 97% 30.04 in 4.0 mi Calm Calm - N/A   Clear